TimeEST,TemperatureF,Dew PointF,Humidity,Sea Level PressureIn,VisibilityMPH,Wind Direction,Wind SpeedMPH,Gust SpeedMPH,PrecipitationIn,Events,Conditions,WindDirDegrees,DateUTC
12:15 AM,18.3,14.5,85,30.08,10.0,Calm,Calm,-,N/A,,Overcast,0,2013-01-24 05:15:00
12:35 AM,18.1,14.0,84,30.07,10.0,WSW,4.6,-,N/A,,Overcast,240,2013-01-24 05:35:00
12:55 AM,18.3,14.4,85,30.08,10.0,WSW,3.5,-,N/A,,Overcast,240,2013-01-24 05:55:00
1:15 AM,18.5,14.5,85,30.08,10.0,Calm,Calm,-,N/A,,Overcast,0,2013-01-24 06:15:00
1:35 AM,18.5,14.4,84,30.09,10.0,WSW,4.6,-,N/A,,Overcast,240,2013-01-24 06:35:00
1:55 AM,18.9,14.5,83,30.10,7.0,West,4.6,-,N/A,,Overcast,270,2013-01-24 06:55:00
2:15 AM,19.8,14.7,81,30.11,7.0,WNW,10.4,-,N/A,,Overcast,290,2013-01-24 07:15:00
2:35 AM,20.5,14.2,77,30.13,10.0,WNW,9.2,-,N/A,,Overcast,290,2013-01-24 07:35:00
2:55 AM,20.1,13.5,75,30.14,10.0,WNW,11.5,-,N/A,,Overcast,290,2013-01-24 07:55:00
3:15 AM,19.9,13.5,76,30.15,10.0,WNW,13.8,20.7,N/A,,Overcast,300,2013-01-24 08:15:00
3:35 AM,19.8,13.6,77,30.17,10.0,WNW,11.5,17.3,N/A,,Overcast,300,2013-01-24 08:35:00
3:55 AM,20.1,13.5,75,30.19,5.0,NW,19.6,-,N/A,Snow,Light Snow,320,2013-01-24 08:55:00
4:15 AM,20.8,12.0,69,30.21,7.0,NW,16.1,25.3,N/A,Snow,Light Snow,320,2013-01-24 09:15:00
4:35 AM,20.1,10.9,68,30.22,10.0,NW,15.0,19.6,N/A,,Overcast,310,2013-01-24 09:35:00
4:55 AM,19.2,10.6,69,30.23,10.0,NW,13.8,21.9,N/A,,Mostly Cloudy,310,2013-01-24 09:55:00
5:15 AM,18.5,9.9,69,30.25,10.0,NW,17.3,26.5,N/A,,Mostly Cloudy,310,2013-01-24 10:15:00
5:35 AM,18.1,9.9,70,30.28,10.0,NNW,17.3,25.3,N/A,Snow,Light Snow,340,2013-01-24 10:35:00
5:55 AM,17.8,9.7,71,30.29,10.0,NNW,17.3,-,N/A,Snow,Light Snow,340,2013-01-24 10:55:00
6:15 AM,17.6,8.4,67,30.31,10.0,NNW,13.8,23.0,N/A,,Overcast,340,2013-01-24 11:15:00
6:35 AM,17.4,8.1,67,30.33,10.0,NNW,11.5,17.3,N/A,,Overcast,340,2013-01-24 11:35:00
6:55 AM,17.2,8.8,69,30.34,7.0,NW,11.5,16.1,N/A,Snow,Light Snow,320,2013-01-24 11:55:00
7:15 AM,16.5,8.2,70,30.36,10.0,NNW,13.8,-,N/A,,Overcast,330,2013-01-24 12:15:00
7:35 AM,15.8,7.7,70,30.38,10.0,NNW,13.8,-,N/A,,Overcast,340,2013-01-24 12:35:00
7:55 AM,16.0,7.0,68,30.40,10.0,NNW,12.7,17.3,N/A,,Overcast,340,2013-01-24 12:55:00
8:15 AM,16.0,7.0,68,30.41,10.0,NNW,9.2,-,N/A,,Mostly Cloudy,330,2013-01-24 13:15:00
8:35 AM,16.5,7.5,68,30.42,10.0,NNW,6.9,-,N/A,,Clear,330,2013-01-24 13:35:00
8:55 AM,16.7,7.5,67,30.43,10.0,NNW,13.8,18.4,N/A,,Scattered Clouds,330,2013-01-24 13:55:00
9:15 AM,16.5,7.7,68,30.45,10.0,NNW,11.5,18.4,N/A,,Mostly Cloudy,330,2013-01-24 14:15:00
9:35 AM,16.5,7.9,69,30.46,10.0,NNW,9.2,-,N/A,,Overcast,330,2013-01-24 14:35:00
9:55 AM,16.7,8.1,69,30.48,10.0,NNW,11.5,-,N/A,,Mostly Cloudy,340,2013-01-24 14:55:00
10:15 AM,17.4,7.9,66,30.50,10.0,NNW,10.4,-,N/A,,Scattered Clouds,340,2013-01-24 15:15:00
10:35 AM,18.0,7.5,64,30.51,10.0,North,9.2,-,N/A,,Clear,350,2013-01-24 15:35:00
10:55 AM,18.9,7.7,62,30.53,10.0,North,8.1,-,N/A,,Clear,350,2013-01-24 15:55:00
11:15 AM,19.4,7.3,60,30.54,10.0,NNW,8.1,-,N/A,,Scattered Clouds,330,2013-01-24 16:15:00
11:35 AM,19.8,7.0,58,30.55,10.0,NNW,8.1,-,N/A,,Scattered Clouds,340,2013-01-24 16:35:00
11:55 AM,20.1,7.0,57,30.55,10.0,NNW,3.5,-,N/A,,Clear,330,2013-01-24 16:55:00
12:15 PM,21.0,7.0,55,30.54,10.0,NNW,5.8,-,N/A,,Clear,340,2013-01-24 17:15:00
12:35 PM,21.4,6.6,53,30.54,10.0,North,5.8,-,N/A,,Clear,350,2013-01-24 17:35:00
12:55 PM,21.6,6.6,53,30.53,10.0,North,8.1,-,N/A,,Clear,350,2013-01-24 17:55:00
1:15 PM,22.5,7.5,53,30.53,10.0,NNW,5.8,-,N/A,,Clear,340,2013-01-24 18:15:00
1:35 PM,22.8,5.2,47,30.52,10.0,NNE,8.1,-,N/A,,Clear,20,2013-01-24 18:35:00
1:55 PM,23.4,6.1,48,30.52,10.0,NNW,4.6,-,N/A,,Clear,330,2013-01-24 18:55:00
2:15 PM,23.5,7.0,49,30.52,10.0,NW,4.6,-,N/A,,Clear,310,2013-01-24 19:15:00
2:35 PM,23.7,5.4,46,30.51,10.0,Calm,Calm,-,N/A,,Clear,0,2013-01-24 19:35:00
2:55 PM,24.1,5.2,45,30.51,10.0,North,5.8,-,N/A,,Clear,10,2013-01-24 19:55:00
3:15 PM,24.1,5.7,46,30.52,10.0,NNE,8.1,-,N/A,,Clear,30,2013-01-24 20:15:00
3:35 PM,23.9,5.9,46,30.52,10.0,NNE,5.8,-,N/A,,Clear,20,2013-01-24 20:35:00
3:55 PM,23.9,5.7,46,30.52,10.0,NE,8.1,-,N/A,,Clear,50,2013-01-24 20:55:00
4:15 PM,23.2,5.5,47,30.51,10.0,NE,8.1,-,N/A,,Clear,50,2013-01-24 21:15:00
4:35 PM,22.8,6.4,50,30.51,10.0,ENE,8.1,-,N/A,,Clear,60,2013-01-24 21:35:00
4:55 PM,22.3,6.6,51,30.51,10.0,East,6.9,-,N/A,,Clear,80,2013-01-24 21:55:00
5:15 PM,21.9,6.1,51,30.52,10.0,NE,4.6,-,N/A,,Clear,40,2013-01-24 22:15:00
5:35 PM,20.7,6.3,54,30.52,10.0,ENE,3.5,-,N/A,,Clear,60,2013-01-24 22:35:00
5:55 PM,20.1,6.6,56,30.53,10.0,Calm,Calm,-,N/A,,Clear,0,2013-01-24 22:55:00
6:15 PM,20.1,7.0,57,30.54,10.0,Calm,Calm,-,N/A,,Clear,0,2013-01-24 23:15:00
6:35 PM,19.8,7.2,58,30.53,10.0,Calm,Calm,-,N/A,,Clear,0,2013-01-24 23:35:00
6:55 PM,19.0,7.7,61,30.53,7.0,Calm,Calm,-,N/A,,Clear,0,2013-01-24 23:55:00
7:15 PM,17.8,7.5,64,30.53,10.0,SE,3.5,-,N/A,,Clear,140,2013-01-25 00:15:00
7:35 PM,17.2,7.3,65,30.54,10.0,SSE,3.5,-,N/A,,Clear,150,2013-01-25 00:35:00
7:55 PM,17.1,7.5,66,30.53,10.0,Calm,Calm,-,N/A,,Clear,0,2013-01-25 00:55:00
8:35 PM,17.4,7.7,66,30.53,10.0,Calm,Calm,-,N/A,,Clear,0,2013-01-25 01:35:00
8:55 PM,16.7,7.9,68,30.51,10.0,Calm,Calm,-,N/A,,Clear,0,2013-01-25 01:55:00
9:15 PM,16.2,8.2,71,30.51,10.0,Calm,Calm,-,N/A,,Clear,0,2013-01-25 02:15:00
9:35 PM,16.7,8.8,71,30.51,10.0,Calm,Calm,-,N/A,,Clear,0,2013-01-25 02:35:00
9:55 PM,16.7,9.7,74,30.50,10.0,Calm,Calm,-,N/A,,Clear,0,2013-01-25 02:55:00
10:15 PM,17.1,10.8,76,30.50,10.0,Calm,Calm,-,N/A,,Clear,0,2013-01-25 03:15:00
10:35 PM,17.8,11.1,75,30.50,10.0,Calm,Calm,-,N/A,,Clear,0,2013-01-25 03:35:00
10:55 PM,18.0,11.1,75,30.49,10.0,Calm,Calm,-,N/A,,Clear,0,2013-01-25 03:55:00
11:15 PM,17.6,11.7,78,30.48,10.0,ENE,4.6,-,N/A,,Clear,70,2013-01-25 04:15:00
11:35 PM,18.0,11.5,76,30.48,10.0,ENE,4.6,-,N/A,,Scattered Clouds,60,2013-01-25 04:35:00
11:55 PM,18.7,11.1,72,30.46,10.0,ENE,5.8,-,N/A,,Mostly Cloudy,70,2013-01-25 04:55:00